Location: Saint-Denis
(20.8800°S, 55.4481°E)
Time: 13:56:36
(UTC+04:00)

FENGYUN 1C DEB - Pass Details

Date: 25 February 2024
Orbit: 798 x 864 km, 98.6° (Epoch: 24 April)

Event Time Altitude Azimuth Distance (km) Brightness Sun altitude
Rises 05:43:28 0° 65° (ENE) 3,395 ? -7.7°
Reaches altitude 10° 05:48:58 10° 110° (ESE) 2,493 ? -6.4°
Maximum altitude 05:49:08 10° 112° (ESE) 2,493 ? -6.4°
Drops below altitude 10° 05:49:19 10° 114° (ESE) 2,495 ? -6.3°
Sets 05:54:53 0° 159° (SSE) 3,458 ? -5.1°
